Hourly Data Report for October 18, 2016

All times are specified in Local Standard Time (LST). Add 1 hour to adjust for Daylight Saving Time where and when it is observed.

RANKIN INLET A
NUNAVUT

62°48'38.000" N
92°06'53.000" W
32.30 m
2303405
71083
YRT

Download Data

Hourly Data (October 2016)
Hourly Data Report for October 18, 2016
Temp Definition
°C
Dew Point Temp Definition
°C
Rel Hum Definition
%
Wind Dir Definition
10's deg

Wind Spd Definition
km/h
Visibility Definition
km
Stn Press Definition
kPa
Hmdx Definition


Wind Chill Definition


Weather Definition


TIME
00:00 Legend Double Dagger 1.0 -3.5 72 12 30 24.1 101.52     Cloudy
01:00 Legend Double Dagger 0.9 -2.7 77 11 24 24.1 101.54     LegendNANA
02:00 Legend Double Dagger 1.0 -3.5 72 11 30 24.1 101.52     Snow
03:00 Legend Double Dagger 1.0 -3.9 70 11 24 24.1 101.52     Cloudy
04:00 Legend Double Dagger 0.9 -4.2 69 11 29 24.1 101.51     LegendNANA
05:00 Legend Double Dagger 0.9 -4.2 69 11 27 24.1 101.52     LegendNANA
06:00 Legend Double Dagger 0.8 -3.1 75 11 30 24.1 101.52     Cloudy
07:00 Legend Double Dagger 0.9 -4.0 70 10 27 24.1 101.53     LegendNANA
08:00 Legend Double Dagger 0.7 -3.6 73 9 22 24.1 101.52     LegendNANA
09:00 Legend Double Dagger 0.3 -3.6 75 8 22 24.1 101.53     Cloudy
10:00 Legend Double Dagger 0.3 -3.3 77 8 23 24.1 101.54     LegendNANA
11:00 Legend Double Dagger 1.0 -3.9 70 9 33 24.1 101.53     LegendNANA
12:00 Legend Double Dagger 0.8 -3.9 71 9 29 24.1 101.55     Cloudy
13:00 Legend Double Dagger 0.6 -2.8 78 9 23 24.1 101.55     LegendNANA
14:00 Legend Double Dagger 0.6 -3.3 75 9 27 12.9 101.57     Snow Showers,Blowing Snow
15:00 Legend Double Dagger -0.2 -2.6 84 7 18 16.1 101.62   -5 Snow Showers,Blowing Snow
16:00 Legend Double Dagger -0.7 -2.1 90 7 27 16.1 101.63   -7 Snow Showers
17:00 Legend Double Dagger -1.2 -2.3 92 6 25 24.1 101.67   -7 Snow Showers
18:00 Legend Double Dagger -1.8 -3.5 88 7 28 24.1 101.69   -9 Mostly Cloudy
19:00 Legend Double Dagger -2.1 -3.8 88 6 31 24.1 101.73   -9 LegendNANA
20:00 Legend Double Dagger -1.8 -4.0 85 6 30 24.1 101.77   -9 LegendNANA
21:00 Legend Double Dagger -2.5 -4.5 86 7 29 24.1 101.78   -10 Mostly Cloudy
22:00 Legend Double Dagger -2.5 -4.5 86 8 28 24.1 101.80   -10 LegendNANA
23:00 Legend Double Dagger -2.5 -5.0 83 7 23 24.1 101.80   -9 LegendNANA

Notes on Data Quality.

Legend

  • E = Estimated
  • M = Missing
  • NA = Not Available
  • ‡ = Partner data that is not subject to review by the National Climate Archives
Date modified: